Regional Weather Roundup
Issued by NWS Newport/Morehead, NC

Current Version | Previous Version | Graphics & Text | Print | Product List | Glossary On
Versions: 1 2 3 4 5 6 7 8 9 10 11 12 13 14 15 16 17 18 19 20 21 22 23 24 25 26 27 28 29 30 31 32 33 34 35 36 37 38 39 40 41 42 43 44 45 46 47 48 49 50
000 ASUS42 KMHX 231825 RWRMHX WEATHER ROUNDUP FOR EASTERN NORTH CAROLINA NATIONAL WEATHER SERVICE NEWPORT/MOREHEAD CITY NC 100 PM EST THU NOV 23 2017 NOTE: "FAIR" INDICATES FEW OR NO CLOUDS BELOW 12,000 FEET WITH NO SIGNIFICANT WEATHER AND/OR OBSTRUCTIONS TO VISIBILITY NCZ015>017-031-032-045>047-102-103-231900- NORTH COAST CITY SKY/WX TMP DP RH WIND PRES REMARKS EDENTON CLOUDY 48 36 64 CALM 30.13F ELIZABETH CITY CLOUDY 48 35 60 N5 30.12F KITTY HAWK MOCLDY 47 36 64 CALM 30.09S MANTEO PTSUNNY 47 37 65 N10 30.10F $$ NCZ045>047-081-094-103-104-231900- CENTRAL COAST CITY SKY/WX TMP DP RH WIND PRES REMARKS FRISCO SUNNY 55 43 63 N12G20 30.07F $$ NCZ095-097-098-100-101-231900- SOUTHERN COAST CITY SKY/WX TMP DP RH WIND PRES REMARKS BEAUFORT CLOUDY 53 43 68 N13 30.07F CEDAR ISLAND NOT AVBL JACKSONVILLE CLOUDY 50 40 68 N10 30.08F PINEY ISLAND NOT AVBL WILMINGTON PTSUNNY 50 38 63 N9 30.07F $$ NCZ011>013-027>030-043-044-078>080-089-090>093-098-231900- COASTAL PLAIN CITY SKY/WX TMP DP RH WIND PRES REMARKS AHOSKIE MOSUNNY 44 30 57 CALM 30.13F CLINTON PTSUNNY 47 36 63 NE5 30.11F ELIZABETHTOWN NOT AVBL GOLDSBORO CLOUDY 47 33 57 N5 30.10F GREENVILLE CLOUDY 46 32 57 N6 30.13F HAVELOCK NOT AVBL KENANSVILLE CLOUDY 46 34 61 N6 30.11F KINSTON CLOUDY 46 34 61 N7 30.13F NEW BERN CLOUDY 48 40 73 N9 30.11F RICHLANDS CLOUDY 47 37 68 N8 30.10F ROCKY MOUNT MOSUNNY 47 31 53 CALM 30.13F WASHINGTON PTSUNNY 47 35 63 NE3 30.12F WHITEVILLE CLOUDY 47 36 63 N5 30.06F $$ AMZ130-135-150-152-154-156-158-170-250-252-270-ANZ085-086-088-633-658-670-231900- MARINE OBSERVATIONS STATION/POSITION TIME TEMP WIND PRES WAVE SWELL AIR SEA DIR/SP/G HT/PER HT/PER (UTC) (F) (DEG/KT/KT) (MB) (FT/S) (FT/S) CHESAPEAKE LIGHT NOT AVBL 64 E VA BEACH 1750 47 60 330/ 12/ 17 1019.1 6/ 8 5/ 8 DUCK 1800 45 58 10/ 13/ 15 1018.9 2 E DUCK 1800 60 N/A 4/10 2/11 OREGON INLET 1800 49 58 10/ 10/ 13 1018.6 13E OREGON INLT 1748 63 N/A 5/ 8 5/ 8 HATTERAS CG 1800 51 58 20/ 15/ 18 1017.9 DIAMOND BUOY 1810 57 72 10/ 14/ 19 1017.6 CAPE LOOKOUT 1800 10/ 13/ 16 1018.1 BEAUFORT LAB 1800 51 60 10/ 13/ 16 1018.1 30 SE NEW RVR IN 1808 55 67 60/ 14/ 17 1017.3 30 SE NEW RVR IN 1800 67 N/A 6/ 9 2/11 27 SE WRIGHTSVLE 1808 57 70 40/ 16/ 23 1016.6 5 SE WRIGHTSVLE 1808 51 63 30/ 10/ 16 1017.5 225 S CAPE HAT 1750 72 76 60/ 14/ 17 1013.5 7/ 9 5/ 9 41 SE CHARLESTON 1810 65 75 30/ 19/ 25 1014.6 $$

USA.gov is the U.S. government's official web portal to all federal, state and local government web resources and services.